Location: Newark
(41.8922°N, 9.0050°E)
Time: 14:03:41
(UTC+00:00)

Envisat - Visible Passes

Search period start: 24 January 2020 00:00
Search period end: 03 February 2020 00:00
Orbit: 764 x 766 km, 98.1° (Epoch: 23 January)

Date Brightness Start Highest point End Pass type
(mag) Time Alt. Az. Time Alt. Az. Time Alt. Az.
24 Jan 5.5 05:12:23 10° NE 05:16:31 25° E 05:20:38 10° SSE visible
24 Jan 5.1 18:06:17 10° SSW 18:10:39 29° W 18:15:03 10° NW visible
25 Jan 6.4 04:38:11 10° ENE 04:39:20 11° E 04:40:29 10° E visible
25 Jan 3.5 17:28:41 10° S 17:33:43 65° W 17:38:47 10° NNW visible
26 Jan 4.4 05:37:19 10° NNE 05:42:10 43° E 05:46:58 10° S visible
26 Jan 5.9 18:33:10 10° SW 18:36:22 17° W 18:39:35 10° NW visible
27 Jan 5.8 05:01:28 10° NE 05:05:07 20° E 05:08:45 10° SE visible
27 Jan 4.7 17:54:38 10° SSW 17:59:18 36° W 18:03:59 10° NNW visible
28 Jan 3.3 06:02:36 10° NNE 06:07:43 76° ESE 06:12:46 10° S visible
28 Jan 3.1 17:17:20 10° S 17:22:25 82° WSW 17:27:32 10° NNW visible
29 Jan 4.9 05:26:12 10° NNE 05:30:49 34° E 05:35:24 10° SSE visible
29 Jan 5.6 18:21:10 10° SW 18:24:57 21° W 18:28:47 10° NW visible
30 Jan 6.1 04:50:45 10° NE 04:53:43 15° E 04:56:40 10° SE visible
30 Jan 4.2 17:43:05 10° S 17:47:57 46° W 17:52:51 10° NNW visible
31 Jan 3.7 05:51:22 10° NNE 05:56:24 60° E 06:01:24 10° S visible
31 Jan 3.0 17:06:04 10° SSE 17:11:08 80° ENE 17:16:14 10° N visible
31 Jan 6.3 18:48:58 10° WSW 18:50:45 12° W 18:52:32 10° WNW visible
01 Feb 5.3 05:15:09 10° NE 05:19:27 27° E 05:23:43 10° SSE visible
01 Feb 5.3 18:09:20 10° SSW 18:13:35 27° W 18:17:51 10° NW visible
02 Feb 6.4 04:40:24 10° ENE 04:42:18 12° E 04:44:10 10° ESE visible
02 Feb 3.7 17:31:38 10° S 17:36:37 59° W 17:41:39 10° NNW visible
